Change the Weather History Date:

Monday, November 11, 2013

  Actual Average (KDSM) Record (KDSM)
Temperature  
Mean Temperature 34 °F 42 °F  
Max Temperature 50 °F 51 °F 73 °F (1964)
Min Temperature 17 °F 33 °F 0 °F (1986)
Degree Days  
Heating Degree Days 32 23  
Month to date heating degree days 228  
Since 1 July heating degree days 712  
Cooling Degree Days 0 0  
Month to date cooling degree days 0  
Year to date cooling degree days 1066  
Moisture  
Dew Point 24 °F    
Average Humidity 71    
Maximum Humidity 86    
Minimum Humidity 47    
Precipitation  
Precipitation 0.00 in 0.08 in 2.58 in (1879)
Month to date precipitation 0.90  
Year to date precipitation 33.31  
Snow  
Snow 0.00 in 0.10 in 1.50 in (1940)
Month to date snowfall 0.4  
Since 1 July snowfall 0.8  
Since 1 September snowfall 0.8  
Snow Depth -    
Sea Level Pressure  
Sea Level Pressure 30.37 in    
Wind  
Wind Speed 12 mph (NNW)    
Max Wind Speed 23 mph    
Max Gust Speed 30 mph    
Visibility 9 miles    
Events Rain , Snow    
T = Trace of Precipitation, MM = Missing Value Source: NWS Daily Summary

Daily Weather History Graph

Daily Weather History Graph

Search for Another Location

Airport or City:

Trip Planner

Search our weather history database for the weather conditions in past years. The results will help you decide how hot, cold, wet, or windy it might be!

Date:

Astronomy

Nov. 11, 2013 Rise Set
Actual Time 6:58 AM CST 4:57 PM CST
Civil Twilight 6:29 AM CST 5:26 PM CST
Nautical Twilight 5:55 AM CST 6:00 PM CST
Astronomical Twilight 5:23 AM CST 6:32 PM CST
Moon 1:43 PM CST (11/11) 12:39 AM CST (11/11)
Length of Visible Light 10h 57m
Length of Day
9h 58m
Waxing Gibbous, 66% of the Moon is Illuminated
Nov 11
Waxing Gibbous
Nov 17
Full
Nov 25
Last Quarter
Dec 2
New
Dec 9
First Quarter

Hourly Weather History & Observations

Time (CST) Temp. Windchill Dew Point Humidity Pressure Visibility Wind Dir Wind Speed Gust Speed Precip Events Conditions
12:15 AM 50.0 °F - 30.2 °F 47% 30.14 in 10.0 mi SSW 11.5 mph - N/A   Overcast
12:35 AM 48.2 °F - 32.0 °F 54% 30.13 in - SSW 11.5 mph - N/A   Overcast
1:55 AM 46.4 °F 44.3 °F 32.0 °F 57% 30.13 in 10.0 mi South 4.6 mph - N/A   Mostly Cloudy
2:15 AM 46.4 °F 43.5 °F 32.0 °F 57% 30.12 in 10.0 mi SSW 5.8 mph - N/A   Overcast
2:35 AM 46.4 °F 42.9 °F 32.0 °F 57% 30.11 in 10.0 mi SSW 6.9 mph - N/A   Mostly Cloudy
2:55 AM 46.4 °F 43.5 °F 33.8 °F 62% 30.11 in 10.0 mi SW 5.8 mph - N/A   Clear
3:15 AM 46.4 °F 42.9 °F 33.8 °F 62% 30.11 in 10.0 mi SW 6.9 mph - N/A   Mostly Cloudy
3:35 AM 48.2 °F - 33.8 °F 58% 30.11 in 10.0 mi SW 6.9 mph - N/A   Overcast
3:55 AM 48.2 °F - 35.6 °F 62% 30.10 in 10.0 mi SW 8.1 mph - N/A   Overcast
4:15 AM 46.4 °F 43.5 °F 35.6 °F 66% 30.09 in 10.0 mi SW 5.8 mph - N/A   Mostly Cloudy
4:35 AM 46.4 °F - 35.6 °F 66% 30.10 in 10.0 mi Calm Calm - N/A   Mostly Cloudy
4:55 AM 48.2 °F - 37.4 °F 66% 30.10 in 10.0 mi WSW 4.6 mph - N/A   Overcast
5:15 AM 48.2 °F - 37.4 °F 66% 30.11 in 10.0 mi West 4.6 mph 11.5 mph N/A   Overcast
5:35 AM 46.4 °F 41.9 °F 37.4 °F 71% 30.11 in 10.0 mi West 9.2 mph - N/A   Mostly Cloudy
5:55 AM 44.6 °F 39.2 °F 35.6 °F 71% 30.13 in 10.0 mi NNW 10.4 mph 20.7 mph N/A   Overcast
6:15 AM 42.8 °F 36.6 °F 33.8 °F 70% 30.14 in 10.0 mi North 11.5 mph - N/A   Overcast
6:35 AM 41.0 °F 32.8 °F 32.0 °F 70% 30.16 in 10.0 mi North 16.1 mph 23.0 mph N/A   Overcast
6:55 AM 41.0 °F 33.9 °F 32.0 °F 70% 30.16 in 10.0 mi North 12.7 mph - N/A   Overcast
7:15 AM 41.0 °F 33.9 °F 32.0 °F 70% 30.17 in 10.0 mi North 12.7 mph - N/A   Overcast
7:35 AM 41.0 °F 32.8 °F 32.0 °F 70% 30.19 in 10.0 mi North 16.1 mph 23.0 mph N/A   Overcast
7:55 AM 41.0 °F 33.1 °F 32.0 °F 70% 30.22 in 10.0 mi North 15.0 mph 21.9 mph N/A   Overcast
8:15 AM 39.2 °F 29.3 °F 32.0 °F 75% 30.23 in 10.0 mi North 20.7 mph 27.6 mph N/A   Overcast
8:35 AM 39.2 °F 28.7 °F 32.0 °F 75% 30.26 in 10.0 mi North 23.0 mph 29.9 mph N/A   Light Drizzle
8:55 AM 39.2 °F 29.8 °F 32.0 °F 75% 30.26 in 10.0 mi North 18.4 mph 26.5 mph N/A   Overcast
9:15 AM 39.2 °F - 32.0 °F 75% 30.27 in 10.0 mi North - - N/A   Overcast
9:35 AM 39.2 °F 29.6 °F 30.2 °F 70% 30.29 in 10.0 mi North 19.6 mph 28.8 mph N/A   Overcast
9:55 AM 39.2 °F 29.6 °F 32.0 °F 75% 30.29 in - North 19.6 mph 25.3 mph N/A   Overcast
10:15 AM 37.4 °F 28.2 °F 32.0 °F 81% 30.30 in 10.0 mi North 16.1 mph 24.2 mph N/A   Overcast
10:35 AM 35.6 °F 24.8 °F 28.4 °F 75% 30.32 in 10.0 mi North 19.6 mph 26.5 mph N/A   Overcast
10:55 AM 35.6 °F 26.2 °F 26.6 °F 70% 30.33 in 10.0 mi North 15.0 mph 24.2 mph N/A   Overcast
11:15 AM 33.8 °F 22.5 °F 26.6 °F 75% 30.34 in 10.0 mi NNE 19.6 mph - N/A   Overcast
11:35 AM 33.8 °F 23.5 °F 26.6 °F 75% 30.36 in 10.0 mi North 16.1 mph 25.3 mph N/A   Overcast
11:55 AM 33.8 °F 22.8 °F 24.8 °F 70% 30.35 in 10.0 mi North 18.4 mph 26.5 mph N/A   Overcast
12:15 PM 32.0 °F 20.1 °F 24.8 °F 75% 30.37 in 10.0 mi North 19.6 mph - N/A   Light Drizzle
12:35 PM 30.2 °F 18.5 °F 24.8 °F 80% 30.38 in 4.0 mi North 17.3 mph 24.2 mph N/A Rain Light Freezing Rain
12:55 PM 28.4 °F 17.0 °F 24.8 °F 86% 30.39 in 1.0 mi North 15.0 mph 21.9 mph N/A Snow Light Snow
1:15 PM 28.4 °F 15.8 °F 23.0 °F 80% 30.39 in 6.0 mi North 18.4 mph 24.2 mph N/A Rain Light Freezing Rain
1:35 PM 28.4 °F 15.8 °F 23.0 °F 80% 30.40 in 8.0 mi NNW 18.4 mph - N/A Rain Light Freezing Rain
1:55 PM 28.4 °F 16.6 °F 23.0 °F 80% 30.40 in 3.0 mi NNW 16.1 mph 27.6 mph N/A Snow Light Snow
2:15 PM 26.6 °F 13.1 °F 23.0 °F 86% 30.42 in 1.2 mi NNW 19.6 mph 25.3 mph N/A Snow Light Snow
2:35 PM 26.6 °F 15.7 °F 23.0 °F 86% 30.43 in 2.5 mi NNW 12.7 mph 18.4 mph N/A Snow Light Snow
2:55 PM 28.4 °F 16.6 °F 21.2 °F 74% 30.43 in 10.0 mi North 16.1 mph 23.0 mph N/A   Overcast
3:15 PM 28.4 °F - 21.2 °F 74% 30.44 in 10.0 mi North - - N/A   Mostly Cloudy
3:35 PM 28.4 °F 15.8 °F 21.2 °F 74% 30.45 in 10.0 mi NNW 18.4 mph 25.3 mph N/A   Light Freezing Rain
3:55 PM 28.4 °F 17.0 °F 19.4 °F 69% 30.46 in 10.0 mi North 15.0 mph 21.9 mph N/A   Mostly Cloudy
4:15 PM 26.6 °F 14.3 °F 19.4 °F 74% 30.47 in 10.0 mi North 16.1 mph 25.3 mph N/A   Light Freezing Rain
4:35 PM 26.6 °F 15.2 °F 19.4 °F 74% 30.49 in 10.0 mi NNW 13.8 mph 25.3 mph N/A   Mostly Cloudy
4:55 PM 26.6 °F 14.7 °F 17.6 °F 69% 30.49 in 10.0 mi NNW 15.0 mph 24.2 mph N/A   Overcast
5:15 PM 26.6 °F 14.3 °F 17.6 °F 69% 30.51 in 10.0 mi NNW 16.1 mph 23.0 mph N/A   Overcast
5:35 PM 24.8 °F 10.7 °F 17.6 °F 74% 30.53 in 10.0 mi North 19.6 mph - N/A   Overcast
5:55 PM 24.8 °F 12.9 °F 17.6 °F 74% 30.54 in 10.0 mi North 13.8 mph 23.0 mph N/A   Overcast
6:15 PM 24.8 °F 11.9 °F 15.8 °F 69% 30.56 in 10.0 mi North 16.1 mph 23.0 mph N/A   Overcast
6:35 PM 24.8 °F 11.9 °F 15.8 °F 69% 30.57 in 10.0 mi North 16.1 mph 21.9 mph N/A   Mostly Cloudy
6:55 PM 24.8 °F 12.9 °F 15.8 °F 69% 30.58 in 10.0 mi North 13.8 mph 20.7 mph N/A   Partly Cloudy
7:15 PM 24.8 °F 11.1 °F 15.8 °F 69% 30.58 in 10.0 mi North 18.4 mph 24.2 mph N/A   Mostly Cloudy
7:35 PM 23.0 °F 8.7 °F 15.8 °F 74% 30.59 in 10.0 mi North 18.4 mph 25.3 mph N/A   Mostly Cloudy
7:55 PM 23.0 °F - 14.0 °F 68% 30.61 in 10.0 mi North - - N/A   Light Freezing Rain
8:15 PM 23.0 °F 11.1 °F 14.0 °F 68% 30.62 in 10.0 mi North 12.7 mph 21.9 mph N/A   Partly Cloudy
8:35 PM 21.2 °F 8.3 °F 14.0 °F 74% 30.62 in 10.0 mi North 13.8 mph 19.6 mph N/A   Clear
8:55 PM 21.2 °F 8.3 °F 12.2 °F 68% 30.63 in 10.0 mi North 13.8 mph 19.6 mph N/A   Clear
9:15 PM 21.2 °F 10.1 °F 12.2 °F 68% 30.65 in 10.0 mi NNW 10.4 mph 16.1 mph N/A   Clear
9:35 PM 19.4 °F 7.2 °F 12.2 °F 74% 30.66 in 10.0 mi NNW 11.5 mph 17.3 mph N/A   Clear
9:55 PM 19.4 °F 6.0 °F 12.2 °F 74% 30.67 in 10.0 mi NNW 13.8 mph - N/A Snow Light Snow
10:15 PM 19.4 °F 7.2 °F 12.2 °F 74% 30.68 in 10.0 mi NNW 11.5 mph - N/A   Clear
10:35 PM 19.4 °F 7.2 °F 12.2 °F 74% 30.68 in 10.0 mi NNW 11.5 mph - N/A   Clear
10:55 PM 19.4 °F 8.6 °F 10.4 °F 68% 30.69 in 10.0 mi NNW 9.2 mph 16.1 mph N/A   Clear
11:15 PM 17.6 °F 5.0 °F 10.4 °F 73% 30.70 in 10.0 mi NNW 11.5 mph - N/A   Clear
11:35 PM 17.6 °F 5.0 °F 10.4 °F 73% 30.70 in 10.0 mi NNW 11.5 mph - N/A   Clear
11:55 PM 17.6 °F 4.3 °F 10.4 °F 73% 30.71 in 10.0 mi NNW 12.7 mph - N/A   Clear